Retour au catalogue

SL-16 DEB

ActifLEO
NORAD 29100·DEBRIS·🇷🇺 Russia

Lancé Mar 26, 1993 depuis Baikonur Cosmodrome

Loading…

Prochains Passages (prochaines 24 heures)

TLE

FraisSource: Space-Track

Époque: Sep 14, 2026, 09:14 UTC

1 29100U 93016AP  26257.38531974  .00000300  00000-0  18453-3 0  9990
2 29100  70.7249 243.8693 0076915 308.2992  51.1226 14.12400166244012

Suivez SL-16 DEB en temps réel avec AllMySat

Download on the App Store